Temperature
29 30 30 30 31 32 32 31 30 29 30 30 30 30 30 30 30 29 28 28 27 26 25 24 23 23 22 22 22 21 21 20 20 20 20 19 19 19 19 19 18 18 18 18
29 30 30 30 31 32 32 32 31 30 30 30 30 29 29 29 29 29 28 27 26 25 24 24 23 23 22 22 21 21 21 20 20 20 19 19 19 19 19 19 18 18 18 18
28 29 30 29 30 31 31 32 31 30 30 30 29 29 28 28 28 27 27 26 25 24 24 23 23 22 22 22 21 21 20 20 20 19 19 19 19 18 18 18 18 18 18 18
27 28 27 30 31 32 31 31 31 30 30 29 29 28 27 27 26 26 25 25 24 24 23 23 22 22 21 21 21 20 20 20 20 19 19 19 18 18 18 18 18 18 18 18
27 27 28 29 31 31 30 30 30 30 29 29 29 28 27 26 25 24 24 23 23 23 23 22 22 21 21 21 20 20 20 19 19 19 19 18 18 18 18 18 18 18 18 18
26 26 26 28 29 30 30 28 28 28 28 28 27 27 25 24 23 23 23 23 23 23 22 22 21 21 21 20 20 20 20 19 19 19 18 18 18 18 18 18 18 18 17 17
26 26 27 28 29 29 27 26 26 26 26 26 25 24 23 23 22 22 22 22 22 21 21 21 21 20 20 20 20 20 19 19 19 18 18 18 18 18 18 17 17 17 17 17
26 25 26 27 28 27 25 25 25 25 24 24 24 23 22 22 21 21 20 21 21 20 20 20 20 20 19 19 19 19 19 18 18 18 18 18 18 17 17 17 17 17 17 17
26 25 25 25 25 25 25 25 24 24 24 23 23 22 21 21 20 20 20 20 20 20 20 19 19 19 19 18 18 18 18 18 18 18 18 18 17 17 17 17 17 17 17 17
25 25 25 25 25 24 24 24 23 23 23 22 22 21 20 20 19 19 19 19 19 19 19 19 18 18 18 18 18 18 18 18 18 18 17 17 17 17 17 17 17 17 16 16
24 24 24 24 24 23 23 23 22 22 22 21 21 20 19 19 19 18 18 18 18 18 18 18 18 18 18 18 18 18 17 17 17 17 17 17 17 17 17 17 17 17 17 16
24 24 24 23 22 22 22 22 21 21 21 21 20 19 19 18 18 18 17 18 18 18 18 18 18 17 17 17 17 17 17 17 17 17 17 17 17 17 17 17 16 16 16 16
22 22 22 21 21 21 21 21 21 21 20 20 19 19 19 18 17 17 17 17 17 17 17 17 17 17 17 17 17 17 17 17 16 17 17 17 16 17 16 16 16 16 16 16
21 20 20 20 20 20 20 20 20 20 20 19 19 18 18 17 17 17 17 17 17 17 17 17 17 17 17 16 16 16 16 16 16 16 16 16 16 16 16 16 16 16 16 16
20 20 20 19 19 19 19 19 19 19 19 19 18 18 17 17 17 16 16 16 16 16 16 16 16 16 16 16 16 16 16 16 16 16 16 16 16 16 16 16 16 15 15 15
19 19 19 19 19 19 19 19 19 19 18 18 17 17 17 17 16 16 16 16 15 15 15 15 15 15 15 15 15 15 15 16 16 16 16 16 16 16 16 16 16 15 15 15
18 18 18 18 18 18 18 18 17 18 17 17 17 16 16 16 16 15 15 15 15 15 15 15 15 15 15 15 15 15 15 15 15 15 16 16 15 15 15 15 15 15 14 14
18 18 18 18 17 17 17 17 17 17 17 16 16 16 16 15 15 15 15 15 14 14 14 14 14 14 14 14 14 14 14 15 15 15 15 15 15 15 14 14 14 14 14 14
17 17 17 17 17 17 17 17 16 16 16 16 16 15 15 15 14 14 14 14 14 14 14 14 14 14 14 14 14 14 14 14 14 14 14 14 14 14 14 14 14 14 13 13
17 17 17 17 17 16 16 16 16 15 15 15 15 15 14 14 14 14 14 13 13 13 13 13 13 13 13 13 13 13 13 14 14 14 14 14 14 14 13 13 13 13 13 13
16 16 16 16 16 16 15 15 15 15 15 15 14 14 14 14 13 13 13 13 13 13 13 13 13 13 13 13 13 13 13 13 13 13 13 13 13 13 13 13 13 13 12 12
16 16 15 15 15 15 15 15 15 14 14 14 14 14 14 13 13 13 13 13 13 12 12 12 12 12 13 12 12 12 13 13 13 13 13 13 13 12 12 12 12 12 12 12
15 15 15 15 15 14 14 14 14 14 14 13 13 13 13 13 13 13 12 12 12 12 12 12 12 12 12 12 12 12 12 12 12 12 12 12 12 12 12 12 11 11 11 11
14 14 14 14 14 14 14 14 14 14 13 13 13 13 13 13 13 13 12 12 12 12 12 12 12 12 12 11 11 11 11 11 11 12 12 12 12 12 11 11 11 11 10 10
14 14 14 14 14 14 14 14 14 14 13 13 13 13 13 13 13 12 12 12 12 12 11 11 11 11 11 11 11 11 11 11 11 11 11 11 11 11 11 11 10 10 10 10
14 14 14 14 14 14 14 14 14 14 14 13 13 13 13 13 12 12 12 12 11 11 11 11 11 11 11 11 10 10 10 10 11 11 11 10 10 10 10 10 10 9 9 9
14 14 13 14 14 14 14 14 13 13 13 13 13 13 12 12 12 12 11 11 11 11 11 10 10 10 10 10 10 10 10 10 10 10 10 10 10 9 9 9 9 9 8 8
Wind_Speed
10 11 12 12 11 10 9 7 6 4 4 3 1 2 4 4 5 5 5 6 6 4 5 6 6 5 5 4 4 4 4 5 5 5 5 5 5 5 4 4 5 4 4 4
12 13 13 13 13 11 10 7 6 7 5 3 0 4 4 4 4 4 4 5 5 4 4 4 4 5 4 4 4 4 4 4 4 4 5 5 5 5 4 4 4 4 4 4
10 11 11 11 11 11 10 8 7 6 3 1 2 2 2 3 3 4 4 4 3 3 2 3 4 4 4 4 4 4 4 4 4 4 4 4 5 4 4 5 4 4 4 4
9 9 12 8 8 9 7 4 2 1 0 1 1 2 5 5 5 5 4 4 3 2 1 2 3 3 3 4 4 4 3 3 3 3 4 3 4 4 4 3 3 4 4 4
8 10 12 8 5 6 5 2 3 3 3 3 3 3 5 8 7 5 5 5 3 3 2 1 2 2 2 3 3 4 3 3 2 3 3 3 3 3 3 3 3 4 4 4
9 11 10 4 4 7 5 2 5 5 5 6 5 2 4 8 9 7 5 4 4 5 4 1 0 1 2 3 3 2 3 3 2 2 3 3 3 3 3 3 3 4 4 4
12 12 7 2 3 5 4 2 6 8 8 7 6 5 4 6 7 7 5 4 5 4 3 2 2 1 1 2 2 2 2 2 2 3 4 3 3 2 2 3 3 5 5 5
10 11 6 5 4 3 4 4 5 6 5 5 5 5 6 5 5 5 5 6 5 4 3 2 1 1 1 1 0 0 1 2 2 3 4 4 3 3 4 4 5 5 5 4
2 2 4 4 4 5 6 5 5 5 4 4 4 4 5 6 6 6 7 7 6 5 3 2 2 1 1 1 0 1 1 2 2 3 3 3 4 5 5 4 4 4 3 3
2 1 2 3 4 5 6 6 5 5 4 4 3 4 5 5 5 6 5 5 5 4 4 3 3 3 2 1 1 1 2 3 3 4 4 3 3 4 4 4 4 3 2 3
4 2 1 2 4 4 4 5 6 5 4 3 3 3 4 4 4 5 5 5 5 5 4 4 3 2 2 2 2 2 3 4 4 4 4 3 3 3 3 3 4 4 3 3
4 1 2 2 4 5 5 5 5 6 6 4 3 2 3 3 3 3 4 4 4 4 5 4 2 1 2 2 2 2 3 3 4 4 3 3 3 3 1 1 3 5 4 3
4 5 4 4 5 5 5 5 5 5 4 3 3 2 2 2 2 3 3 4 4 5 5 4 3 2 2 1 1 2 4 3 4 4 4 4 3 3 3 2 2 3 4 3
4 4 4 4 5 5 6 6 5 5 4 4 2 2 1 1 2 3 4 5 5 5 5 5 4 4 4 2 1 3 4 4 4 4 4 4 4 5 4 4 4 3 3 4
2 3 3 4 4 4 5 5 5 5 4 4 3 1 1 1 1 2 4 5 5 5 5 5 5 5 5 4 2 3 4 3 3 4 4 3 3 4 4 3 2 2 2 2
2 2 3 4 4 4 4 5 6 5 4 4 4 3 2 2 2 3 3 3 4 5 5 5 6 6 5 5 5 4 3 4 4 4 4 4 3 3 3 3 2 1 1 1
3 3 4 4 4 4 4 5 6 5 4 3 4 4 4 3 3 3 4 4 3 4 4 4 5 5 5 5 5 5 5 4 5 4 4 3 3 3 3 3 3 2 1 0
3 4 3 4 4 4 5 4 4 4 4 4 4 3 3 4 4 4 5 5 4 3 4 4 4 5 4 5 5 5 5 5 4 4 3 3 3 3 3 3 3 2 2 1
3 3 3 3 3 4 4 5 4 4 4 4 3 3 3 3 4 4 5 5 5 5 5 5 5 4 4 4 5 4 5 5 4 3 3 3 3 3 3 3 3 2 3 2
2 3 3 2 2 3 3 3 3 4 4 3 3 3 3 3 3 4 4 4 4 5 6 6 5 4 4 4 5 5 5 4 5 4 3 3 3 2 2 3 3 3 2 2
1 1 2 2 3 3 3 3 3 3 3 3 3 3 3 3 3 3 3 4 4 5 6 6 4 4 5 5 5 5 5 4 5 5 4 3 4 3 3 3 3 3 2 2
1 2 2 2 3 3 3 3 3 3 3 2 3 3 4 3 3 3 3 3 3 5 5 5 5 5 6 7 5 5 5 5 5 4 3 3 3 3 3 3 3 3 3 2
2 3 2 2 2 2 3 3 3 2 3 2 3 3 4 3 3 3 4 3 3 3 4 5 5 6 8 6 5 5 5 5 5 4 3 3 3 2 2 2 2 3 3 3
2 2 2 2 2 2 2 2 2 2 2 2 2 2 3 3 2 2 2 1 2 3 4 4 4 6 6 5 5 4 4 5 5 5 4 3 3 2 2 2 2 2 2 4
2 2 2 3 4 3 2 2 2 2 2 2 2 2 2 2 2 3 3 3 2 2 4 3 4 5 4 4 5 5 4 5 5 5 4 4 4 3 2 2 2 2 2 3
2 2 2 3 4 3 3 3 3 2 2 2 2 2 2 2 2 2 2 3 3 3 4 3 3 3 4 4 4 5 5 4 5 4 4 4 4 4 3 3 3 3 3 3
3 2 2 3 3 2 2 2 2 2 2 2 3 3 3 3 3 3 4 4 4 3 4 3 3 4 4 5 5 5 5 4 4 4 3 3 3 4 3 3 3 3 3 3
Wind_Direction
270 271 275 270 266 264 261 262 266 264 270 268 292 45 51 55 75 97 107 107 107 120 125 140 146 152 163 168 169 176 179 184 190 195 200 208 207 209 209 212 218 211 222 233
267 263 268 273 274 270 262 260 249 243 243 232 11 57 48 52 59 71 78 86 95 105 117 133 150 164 170 171 171 176 189 190 190 196 199 210 212 209 208 212 220 218 219 225
271 275 276 262 264 266 264 262 256 252 257 155 90 54 37 52 55 52 55 64 76 106 122 141 154 167 175 175 178 182 190 192 190 194 197 208 220 209 217 220 217 222 219 218
263 272 264 257 256 262 268 274 326 94 35 34 98 48 46 49 49 41 39 53 47 63 116 140 138 147 164 169 165 170 180 190 193 197 202 197 207 219 214 215 217 225 228 222
261 257 259 255 274 282 280 313 24 41 27 9 42 71 49 34 32 46 44 43 25 23 14 72 136 157 152 164 172 175 179 185 195 193 200 199 205 215 215 218 226 230 231 228
256 263 262 256 319 319 293 215 31 30 25 14 17 31 40 30 23 30 37 32 23 30 19 10 81 148 166 177 174 185 186 188 190 205 215 207 213 213 220 221 228 235 236 230
248 258 267 304 307 299 276 18 26 34 25 20 32 24 22 29 25 14 7 14 27 28 18 8 27 41 185 185 191 193 191 195 198 208 219 206 201 207 216 229 237 238 238 229
240 251 259 354 341 12 39 37 35 36 22 22 27 25 32 31 27 16 6 7 13 17 17 20 34 9 281 188 230 167 192 208 217 226 240 213 199 210 216 227 237 239 242 243
284 296 56 35 37 40 30 24 22 19 6 16 29 28 27 21 9 9 12 9 9 7 10 25 25 6 336 355 337 230 224 227 230 235 242 230 213 218 220 223 235 239 240 251
269 32 28 26 43 32 19 12 6 7 18 21 23 14 21 23 11 359 359 3 0 3 2 9 19 6 356 353 293 227 237 236 232 229 230 233 226 226 224 224 230 241 247 249
247 214 267 358 23 17 15 5 360 359 358 13 17 18 21 23 12 348 340 352 356 1 356 357 11 354 338 339 312 265 253 246 244 237 234 233 230 245 240 224 213 219 237 243
290 318 312 355 8 359 357 351 342 336 334 348 2 357 5 13 12 350 343 352 354 354 346 350 2 3 338 316 313 290 266 252 254 252 240 235 228 235 241 241 210 216 226 239
357 4 24 15 355 349 338 326 318 318 320 328 326 325 344 10 357 348 345 345 351 347 341 346 351 345 321 302 271 277 281 276 270 264 256 244 238 238 235 231 249 245 233 226
29 12 352 343 337 336 332 323 318 321 325 323 319 339 350 2 356 345 331 330 336 340 340 339 340 340 334 328 297 277 280 277 271 267 261 250 244 245 244 235 230 238 236 226
357 326 316 323 325 330 330 316 306 305 309 310 318 322 318 307 324 313 311 313 322 327 330 333 336 336 336 324 303 286 286 285 288 288 282 277 269 262 260 260 244 235 222 200
311 311 304 290 296 307 314 318 316 321 331 337 341 333 321 318 311 297 302 315 314 314 328 334 333 332 330 324 322 303 284 281 282 283 280 282 286 285 284 280 265 253 262 243
269 261 271 288 300 309 314 317 319 318 324 330 329 327 329 326 319 320 319 313 305 309 313 316 319 323 326 329 321 306 300 285 274 276 281 286 291 288 293 295 283 271 262 159
270 281 283 285 291 300 302 308 316 318 325 332 325 322 328 326 319 322 321 317 317 324 328 320 315 314 320 325 315 306 307 306 296 294 297 298 289 288 286 279 282 283 275 227
287 296 297 300 307 310 313 318 323 321 326 327 332 337 335 328 330 331 328 326 332 331 331 326 318 311 316 329 319 306 300 303 304 303 299 292 286 291 290 290 294 302 292 291
294 296 297 311 319 314 313 312 314 311 320 333 340 337 337 337 336 340 341 333 327 320 325 327 321 319 313 317 308 296 292 297 295 291 291 292 287 286 299 299 291 287 301 304
298 322 11 1 348 339 326 327 330 329 326 327 332 337 338 338 336 334 327 318 335 342 332 327 321 317 315 315 295 290 290 290 290 296 298 300 303 308 306 296 295 299 305 310
337 347 353 344 341 338 332 328 327 322 318 325 332 329 324 327 327 328 327 320 338 354 335 326 328 337 333 314 300 297 297 299 303 306 309 318 326 328 325 318 317 321 322 325
345 339 332 330 321 323 329 333 339 338 333 337 330 322 316 317 313 312 318 336 340 338 323 328 339 340 326 314 311 308 307 307 304 298 301 312 317 315 308 311 317 316 320 322
314 310 314 302 291 295 307 316 327 333 318 296 289 295 294 294 299 316 333 357 347 340 332 339 328 318 311 312 311 311 311 311 309 310 312 315 311 310 309 312 317 315 317 323
283 287 287 289 281 277 276 278 273 264 274 298 303 294 288 311 330 338 332 334 347 328 327 327 299 292 300 316 320 321 321 317 312 313 319 315 309 313 321 324 331 334 332 340
257 268 286 298 300 293 293 304 307 310 310 318 322 326 334 346 341 334 334 338 344 328 318 321 319 307 319 325 326 322 317 314 311 307 318 324 325 331 346 353 360 4 9 12
257 250 249 265 279 287 295 308 318 326 331 333 333 342 345 349 353 351 342 335 338 327 317 319 328 332 334 340 341 342 341 338 337 340 340 337 339 340 345 2 18 18 8 4
Height
1478 1475 1474 1473 1470 1467 1471 1473 1482 1484 1481 1477 1475 1476 1477 1477 1479 1482 1484 1487 1490 1493 1494 1496 1498 1500 1502 1504 1505 1507 1508 1508 1509 1510 1510 1511 1512 1512 1513 1513 1514 1514 1515 1515
1483 1476 1474 1474 1468 1467 1468 1468 1473 1477 1480 1474 1476 1476 1478 1479 1481 1483 1486 1488 1490 1492 1494 1495 1497 1498 1500 1501 1503 1504 1505 1506 1507 1507 1508 1509 1509 1509 1510 1510 1511 1511 1511 1512
1489 1477 1476 1481 1471 1469 1467 1464 1468 1477 1477 1474 1476 1479 1481 1481 1483 1485 1488 1489 1491 1492 1493 1494 1496 1496 1498 1499 1500 1501 1502 1503 1504 1505 1505 1506 1507 1507 1507 1507 1507 1508 1508 1509
1488 1488 1500 1476 1462 1462 1463 1464 1466 1470 1472 1474 1477 1479 1481 1483 1486 1487 1489 1490 1491 1492 1493 1494 1494 1495 1496 1497 1498 1498 1499 1501 1501 1502 1503 1503 1503 1504 1504 1504 1504 1505 1505 1506
1489 1492 1487 1472 1464 1464 1467 1471 1469 1470 1473 1475 1477 1479 1483 1485 1487 1488 1489 1490 1491 1491 1493 1493 1493 1493 1494 1495 1496 1496 1497 1498 1499 1499 1500 1501 1501 1501 1501 1502 1502 1502 1503 1503
1489 1496 1495 1478 1467 1465 1467 1479 1475 1474 1477 1479 1479 1482 1487 1487 1488 1488 1489 1491 1491 1490 1491 1491 1492 1493 1493 1493 1494 1495 1495 1495 1496 1497 1498 1498 1498 1499 1499 1499 1499 1500 1500 1500
1488 1490 1481 1471 1469 1469 1483 1487 1481 1480 1483 1484 1485 1488 1490 1489 1489 1490 1490 1490 1490 1489 1489 1490 1490 1491 1491 1491 1492 1492 1493 1494 1494 1494 1495 1495 1496 1496 1497 1497 1497 1497 1497 1497
1484 1491 1489 1474 1472 1478 1484 1482 1483 1484 1486 1486 1488 1489 1489 1490 1490 1490 1490 1490 1489 1488 1488 1488 1489 1489 1489 1489 1489 1490 1490 1491 1491 1492 1492 1493 1493 1493 1494 1494 1495 1495 1495 1495
1480 1484 1481 1480 1481 1482 1484 1484 1485 1486 1488 1488 1489 1490 1490 1491 1491 1490 1489 1489 1488 1487 1487 1487 1487 1487 1487 1487 1487 1487 1488 1488 1489 1489 1490 1490 1490 1490 1491 1491 1491 1492 1492 1492
1478 1479 1481 1482 1483 1485 1486 1487 1487 1488 1489 1489 1490 1490 1490 1490 1490 1490 1489 1489 1488 1486 1485 1485 1485 1485 1485 1484 1485 1485 1486 1486 1486 1486 1487 1488 1488 1488 1488 1488 1488 1488 1489 1489
1478 1480 1482 1483 1485 1486 1487 1488 1488 1489 1489 1490 1490 1491 1491 1490 1490 1491 1490 1489 1487 1485 1484 1484 1483 1483 1483 1483 1482 1482 1483 1483 1484 1484 1484 1484 1485 1485 1485 1485 1485 1485 1485 1486
1480 1481 1483 1486 1487 1487 1488 1489 1490 1490 1490 1490 1490 1490 1490 1490 1490 1489 1489 1488 1486 1485 1484 1482 1482 1481 1481 1481 1480 1480 1480 1480 1481 1482 1482 1482 1482 1482 1482 1482 1482 1482 1482 1482
1483 1483 1485 1487 1488 1488 1489 1489 1490 1490 1489 1489 1490 1490 1490 1489 1489 1488 1488 1487 1485 1484 1483 1481 1480 1480 1479 1478 1478 1477 1477 1478 1478 1479 1479 1479 1479 1478 1478 1478 1478 1478 1478 1478
1485 1486 1487 1488 1488 1489 1489 1489 1489 1489 1488 1488 1488 1488 1488 1488 1487 1487 1486 1485 1484 1482 1481 1480 1479 1478 1478 1477 1476 1475 1476 1476 1476 1476 1476 1476 1476 1475 1475 1475 1475 1474 1474 1474
1487 1487 1488 1488 1488 1488 1488 1488 1488 1487 1487 1487 1487 1487 1486 1486 1485 1485 1485 1483 1482 1480 1479 1478 1477 1476 1476 1475 1474 1473 1473 1473 1473 1473 1473 1473 1473 1473 1472 1472 1471 1471 1470 1470
1486 1486 1487 1488 1487 1487 1487 1487 1487 1486 1486 1486 1485 1485 1485 1484 1484 1483 1482 1481 1480 1479 1478 1477 1475 1474 1474 1473 1472 1471 1471 1471 1471 1470 1470 1470 1469 1469 1469 1468 1468 1467 1467 1466
1485 1486 1486 1486 1486 1486 1486 1486 1486 1486 1485 1484 1484 1484 1483 1483 1482 1481 1480 1479 1478 1477 1476 1475 1473 1472 1471 1471 1470 1469 1469 1468 1468 1468 1467 1467 1466 1466 1465 1465 1464 1464 1463 1463
1484 1484 1485 1485 1485 1485 1485 1485 1485 1485 1484 1484 1483 1483 1482 1481 1481 1479 1479 1477 1476 1475 1474 1472 1471 1470 1469 1469 1468 1467 1467 1466 1465 1464 1463 1463 1463 1462 1462 1461 1461 1461 1460 1460
1483 1483 1484 1484 1484 1484 1484 1484 1484 1483 1483 1483 1482 1481 1480 1480 1479 1478 1477 1476 1474 1473 1471 1470 1469 1468 1467 1467 1466 1465 1465 1464 1463 1461 1461 1460 1460 1460 1459 1459 1458 1458 1458 1457
1482 1482 1483 1483 1483 1483 1483 1483 1482 1482 1482 1482 1481 1480 1479 1478 1477 1476 1475 1473 1472 1471 1470 1469 1467 1466 1465 1464 1464 1463 1463 1462 1461 1460 1459 1458 1458 1457 1457 1457 1457 1456 1455 1454
1481 1482 1482 1482 1482 1481 1482 1481 1481 1481 1481 1480 1479 1478 1477 1476 1475 1474 1473 1472 1471 1469 1468 1467 1466 1464 1464 1462 1462 1461 1460 1460 1459 1458 1457 1457 1456 1455 1454 1454 1454 1454 1453 1452
1481 1481 1481 1481 1481 1481 1481 1480 1480 1479 1479 1478 1478 1477 1476 1475 1474 1473 1472 1471 1470 1468 1467 1466 1464 1463 1462 1461 1460 1459 1458 1458 1457 1456 1455 1454 1454 1453 1452 1452 1451 1451 1451 1450
1480 1481 1480 1480 1480 1480 1479 1479 1478 1478 1477 1477 1476 1476 1475 1474 1473 1472 1471 1469 1469 1467 1466 1464 1463 1461 1459 1458 1458 1457 1456 1455 1453 1453 1452 1452 1452 1451 1450 1449 1448 1448 1447 1447
1480 1480 1480 1479 1479 1479 1478 1478 1477 1477 1476 1476 1475 1475 1474 1473 1472 1471 1470 1469 1467 1466 1464 1463 1461 1459 1457 1456 1455 1454 1453 1452 1451 1450 1450 1450 1449 1448 1447 1446 1445 1445 1445 1444
1479 1479 1479 1478 1478 1477 1477 1477 1476 1475 1475 1475 1474 1473 1473 1472 1471 1470 1469 1468 1466 1464 1462 1461 1459 1457 1455 1454 1453 1452 1451 1450 1449 1448 1447 1447 1446 1445 1444 1443 1442 1442 1442 1441
1477 1477 1477 1477 1476 1476 1476 1475 1475 1474 1474 1473 1473 1472 1472 1471 1470 1469 1468 1466 1465 1463 1461 1460 1458 1456 1455 1453 1451 1450 1448 1447 1447 1446 1445 1444 1443 1442 1441 1440 1439 1439 1438 1437
1476 1476 1475 1475 1475 1475 1474 1474 1474 1473 1473 1473 1472 1471 1471 1470 1469 1468 1466 1465 1463 1462 1460 1459 1457 1455 1454 1452 1450 1448 1446 1445 1444 1444 1443 1442 1441 1440 1439 1438 1437 1436 1435 1434